Meeker, CO

1:03 PM MDT on March 26, 2017 (GMT -0600)
Meeker

Weather History for KEEO - December, 2013

Change the Weather History Date:

Monday, December 9, 2013

  Actual Average Record
Temperature  
Mean Temperature -3 °F 22 °F  
Max Temperature 9 °F 35 °F 50 °F (2015)
Min Temperature -16 °F 10 °F -16 °F (2013)
Degree Days  
Heating Degree Days 68 43  
Month to date heating degree days 500 372  
Since 1 July heating degree days 2398 2308  
Cooling Degree Days 0 0  
Month to date cooling degree days 0 0  
Year to date cooling degree days 324 172  
Moisture  
Dew Point -6 °F    
Average Humidity 77    
Maximum Humidity 96    
Minimum Humidity 57    
Precipitation  
Precipitation T in 0.03 in 0.07 in (2000)
Month to date precipitation 0.76 0.34  
Year to date precipitation 17.76 15.29  
Sea Level Pressure  
Sea Level Pressure 30.33 in    
Wind  
Wind Speed 2 mph (NE)    
Max Wind Speed 8 mph    
Max Gust Speed 10 mph    
Visibility 7 miles    
Events Snow    
T = Trace of Precipitation, MM = Missing Value Source: NWS Daily Summary

Daily Weather History Graph

Daily Weather History Graph

Search for Another Location

Airport or City:

Trip Planner

Search our weather history database for the weather conditions in past years. The results will help you decide how hot, cold, wet, or windy it might be!

Date:

Astronomy

Dec. 09, 2013 Rise Set
Actual Time 7:22 AM MST 4:46 PM MST
Civil Twilight 6:51 AM MST 5:16 PM MST
Nautical Twilight 6:17 AM MST 5:50 PM MST
Astronomical Twilight 5:44 AM MST 6:23 PM MST
Moon 12:16 PM MST (12/9) No Moon Set
Length of Visible Light 10h 24m
Length of Day
9h 24m
First Quarter, 52% of the Moon is Illuminated
Dec 9
First Quarter
Dec 17
Full
Dec 25
Last Quarter
Jan 1
New
Jan 7
First Quarter

Hourly Weather History & Observations

Time (MST) Temp. Windchill Dew Point Humidity Pressure Visibility Wind Dir Wind Speed Gust Speed Precip Events Conditions
12:05 AM 6.8 °F -3.5 °F 3.2 °F 85% 29.98 in 1.8 mi WSW 5.8 mph - 0.00 in Snow Light Snow
12:14 AM 6.8 °F -3.5 °F 3.2 °F 85% 29.98 in 2.5 mi WSW 5.8 mph - 0.00 in Snow Light Snow
12:21 AM 6.8 °F -0.1 °F 3.2 °F 85% 29.98 in 4.0 mi WSW 3.5 mph - 0.00 in   Overcast
12:42 AM 6.8 °F - 3.2 °F 85% 29.99 in 2.0 mi Calm Calm - 0.00 in Snow Light Snow
12:53 AM 7.0 °F - 3.0 °F 84% 30.21 in 2.5 mi Calm Calm - 0.00 in Snow Light Snow
12:59 AM 6.8 °F - 3.2 °F 85% 29.99 in 4.0 mi Calm Calm - 0.00 in Snow Light Snow
1:12 AM 6.8 °F - 3.2 °F 85% 29.99 in 2.0 mi Calm Calm - 0.00 in Snow Light Snow
1:53 AM 6.1 °F - 3.0 °F 87% 30.22 in 2.0 mi Calm Calm - 0.00 in Snow Light Snow
2:04 AM 6.8 °F - 3.2 °F 85% 30.00 in 1.8 mi Calm Calm - 0.00 in Snow Light Snow
2:11 AM 6.8 °F - 1.4 °F 79% 30.00 in 2.0 mi Calm Calm - 0.00 in Snow Light Snow
2:39 AM 6.8 °F - 3.2 °F 85% 30.01 in 3.0 mi Calm Calm - 0.00 in Snow Light Snow
2:53 AM 5.0 °F - 3.0 °F 92% 30.27 in 3.0 mi Calm Calm - 0.00 in Snow Light Snow
3:07 AM 5.0 °F - 1.4 °F 85% 30.03 in 2.5 mi Calm Calm - 0.00 in Snow Light Snow
3:25 AM 3.2 °F - -0.4 °F 85% 30.02 in 3.0 mi Calm Calm - 0.00 in Snow Light Snow
3:53 AM 3.9 °F - 1.0 °F 88% 30.27 in 3.0 mi Calm Calm - 0.00 in Snow Light Snow
3:58 AM 1.4 °F - -0.4 °F 92% 30.03 in 2.5 mi Calm Calm - 0.00 in Snow Light Snow
4:13 AM 1.4 °F - -2.2 °F 85% 30.03 in 4.0 mi Calm Calm - 0.00 in Snow Light Snow
4:46 AM -4.0 °F - -7.6 °F 85% 30.05 in 9.0 mi Calm Calm - 0.00 in   Overcast
4:53 AM -6.0 °F - -9.9 °F 83% 30.39 in 10.0 mi Calm Calm - 0.00 in   Overcast
5:47 AM -7.6 °F -18.8 °F -11.2 °F 84% 30.08 in 9.0 mi ENE 4.6 mph - N/A   Mostly Cloudy
5:53 AM -7.1 °F -15.9 °F -11.9 °F 79% 30.42 in 9.0 mi ENE 3.5 mph - N/A   Scattered Clouds
6:00 AM -7.6 °F -16.5 °F -11.2 °F 84% 30.08 in 9.0 mi NE 3.5 mph - N/A   Scattered Clouds
6:53 AM -13.0 °F -25.1 °F -16.1 °F 86% 30.47 in 10.0 mi ENE 4.6 mph - N/A   Partly Cloudy
7:53 AM -14.1 °F -26.3 °F -18.9 °F 79% 30.51 in 10.0 mi NE 4.6 mph - N/A   Clear
8:53 AM -9.0 °F - -11.9 °F 87% 30.51 in 10.0 mi Calm Calm - N/A   Clear
9:53 AM -6.0 °F - -9.9 °F 83% 30.52 in 10.0 mi Calm Calm - N/A   Clear
10:53 AM -0.9 °F - -8.0 °F 72% 30.54 in 10.0 mi Calm Calm - N/A   Clear
11:53 AM 1.9 °F - -6.0 °F 69% 30.51 in 10.0 mi Calm Calm - N/A   Clear
12:53 PM 3.9 °F - -5.1 °F 66% 30.51 in 10.0 mi Calm Calm - N/A   Clear
1:53 PM 7.0 °F - -4.0 °F 61% 30.51 in 10.0 mi Calm Calm - N/A   Clear
2:53 PM 8.1 °F - -4.0 °F 58% 30.53 in 10.0 mi Calm Calm - N/A   Clear
3:53 PM 6.1 °F - -4.0 °F 63% 30.56 in 10.0 mi Calm Calm - N/A   Clear
4:53 PM -5.1 °F - -11.0 °F 76% 30.70 in 10.0 mi Calm Calm - N/A   Clear
5:53 PM -9.9 °F -23.4 °F -15.0 °F 78% 30.75 in 10.0 mi NE 5.8 mph - N/A   Clear
6:53 PM -9.9 °F - -15.0 °F 78% 30.80 in 10.0 mi Calm Calm - N/A   Clear
7:53 PM -11.0 °F -22.8 °F -17.0 °F 75% 30.82 in 10.0 mi ENE 4.6 mph - N/A   Clear
8:53 PM -9.9 °F -23.4 °F -15.0 °F 78% 30.80 in 10.0 mi ENE 5.8 mph - N/A   Clear
9:53 PM -11.9 °F - -16.1 °F 82% 30.79 in 10.0 mi Calm Calm - N/A   Clear
10:53 PM -11.0 °F -20.4 °F -16.1 °F 78% 30.78 in 10.0 mi NE 3.5 mph - N/A   Clear
11:53 PM -9.9 °F -19.2 °F -16.1 °F 74% 30.76 in 10.0 mi East 3.5 mph - N/A   Clear